KX4BE Weather Reports


Display with metric or nautical units.
time (UTC)temp
F
wind
direction
speed
MPH
gust
MPH
rain 1hr
in
rain 24hr
in
rain mn
in
humidity
%
barometer
mb
20260906022338 78 131 0.0 0.0 0.00 0.39 0.39 89 1015.4
20260906021835 78 131 0.0 0.0 0.00 0.39 0.39 88 1015.4
20260906021335 78 131 0.0 0.0 0.00 0.39 0.39 87 1015.4
20260906020852 78 131 0.0 0.0 0.00 0.39 0.39 89 1015.5
20260906020348 78 131 0.0 0.0 0.00 0.39 0.39 88 1015.4
20260906015845 79 131 0.0 0.0 0.00 0.39 0.39 87 1015.4
20260906015342 79 131 0.0 0.0 0.00 0.39 0.39 87 1015.4
20260906014838 79 131 0.0 0.0 0.00 0.39 0.39 86 1015.2
20260906014338 79 131 0.0 0.0 0.00 0.39 0.39 87 1015.1
20260906013836 79 131 0.0 0.0 0.00 0.39 0.39 86 1015.2
20260906013352 79 131 0.0 0.0 0.00 0.39 0.39 85 1015.2
20260906012848 79 131 0.0 0.0 0.00 0.39 0.39 85 1015.1
20260906012348 79 131 0.0 0.0 0.00 0.39 0.39 85 1015.0
20260906011844 79 131 0.0 1.0 0.00 0.39 0.39 86 1015.0
20260906011343 79 131 0.0 1.0 0.00 0.39 0.39 85 1015.0
20260906010840 80 131 0.0 0.0 0.00 0.39 0.39 86 1015.2
20260906010357 80 131 0.0 0.0 0.00 0.39 0.39 85 1015.0
20260906005838 80 131 0.0 0.0 0.00 0.39 0.39 85 1014.8
20260906005337 80 131 0.0 0.0 0.00 0.39 0.39 85 1014.8
20260906004852 80 131 0.0 0.0 0.00 0.39 0.39 84 1014.8
20260906004330 80 131 0.0 0.0 0.00 0.39 0.39 84 1014.8
20260906003849 80 131 0.0 1.0 0.00 0.39 0.39 84 1014.7
20260906003345 80 131 0.0 1.0 0.00 0.39 0.39 82 1014.7
20260906002842 81 131 0.0 1.0 0.00 0.39 0.39 81 1014.7
20260906002341 81 131 0.0 1.0 0.00 0.39 0.39 81 1014.7
20260906001838 81 131 0.0 0.0 0.00 0.39 0.39 80 1014.7
20260906001335 81 131 0.0 0.0 0.00 0.39 0.39 80 1014.7
20260906000852 82 131 0.0 0.0 0.00 0.39 0.39 80 1014.7
20260906000407 82 131 0.0 1.0 0.00 0.39 0.39 78 1014.7
20260905235843 82 131 0.0 1.0 0.00 0.39 0.39 79 1014.7
20260905235343 83 131 0.0 1.0 0.00 0.39 0.39 78 1014.8
20260905234841 83 131 0.0 0.0 0.00 0.39 0.39 77 1014.9
20260905234340 83 131 0.0 1.0 0.00 0.39 0.39 76 1014.8
20260905233837 83 131 0.0 3.0 0.00 0.39 0.39 76 1015.1
20260905233336 84 131 1.0 3.0 0.00 0.39 0.39 75 1014.8
20260905232832 84 131 1.0 2.0 0.00 0.39 0.39 75 1014.8
20260905232331 84 131 0.0 3.0 0.00 0.39 0.39 75 1015.0
20260905231830 84 131 1.0 3.0 0.00 0.39 0.39 75 1014.8
20260905231349 84 131 0.0 0.0 0.00 0.39 0.39 73 1014.6
20260905230845 85 131 0.0 0.0 0.00 0.39 0.39 73 1014.5
20260905230340 85 131 0.0 0.0 0.00 0.39 0.39 72 1014.2
20260905225837 85 131 0.0 0.0 0.00 0.39 0.39 72 1014.1
20260905225335 85 131 0.0 0.0 0.00 0.39 0.39 71 1014.3
20260905224346 86 131 0.0 4.0 0.00 0.39 0.39 69 1014.4
20260905223843 87 92 3.0 4.0 0.00 0.39 0.39 68 1014.4
20260905223335 87 91 2.0 3.0 0.00 0.39 0.39 68 1014.4
20260905222834 87 89 2.0 3.0 0.00 0.39 0.39 67 1014.5
20260905222336 87 90 1.0 4.0 0.00 0.39 0.39 67 1014.5
20260905221834 87 62 1.0 4.0 0.00 0.39 0.39 68 1014.5
20260905221353 87 91 0.0 3.0 0.00 0.39 0.39 66 1014.6
20260905220911 88 92 1.0 4.0 0.00 0.39 0.39 67 1014.7
20260905220346 88 49 2.0 3.0 0.00 0.39 0.39 66 1014.9
20260905215842 88 17 0.0 2.0 0.00 0.39 0.39 67 1014.9
20260905215338 88 17 1.0 5.0 0.00 0.39 0.39 65 1014.9
20260905214834 88 10 0.0 8.0 0.00 0.39 0.39 68 1015.0
20260905214353 88 344 2.0 8.0 0.00 0.39 0.39 69 1015.0
20260905213850 88 94 2.0 5.0 0.00 0.39 0.39 67 1015.2
20260905213406 87 10 1.0 5.0 0.00 0.39 0.39 65 1015.0
20260905212841 87 21 2.0 9.0 0.00 0.39 0.39 65 1015.2
20260905212340 88 30 3.0 11.0 0.00 0.39 0.39 63 1015.1
20260905211839 88 339 2.0 11.0 0.00 0.39 0.39 66 1015.3
20260905211337 88 15 4.0 10.0 0.00 0.39 0.39 65 1015.3
20260905210835 88 49 2.0 9.0 0.00 0.39 0.39 66 1015.0
20260905210329 88 17 2.0 9.0 0.00 0.39 0.39 67 1015.2
20260905205846 87 92 4.0 9.0 0.00 0.39 0.39 68 1015.2
20260905205342 86 73 2.0 9.0 0.00 0.39 0.39 69 1015.4
20260905204839 85 5 3.0 7.0 0.00 0.39 0.39 72 1015.3
20260905204338 85 333 2.0 6.0 0.00 0.39 0.39 72 1015.4
20260905203841 85 324 3.0 8.0 0.00 0.39 0.39 73 1015.2
20260905203337 85 290 1.0 8.0 0.00 0.39 0.39 73 1015.3
20260905202835 86 36 2.0 7.0 0.00 0.39 0.39 76 1015.5
20260905202334 86 28 2.0 9.0 0.00 0.39 0.39 71 1015.2
20260905201830 87 21 1.0 9.0 0.00 0.39 0.39 72 1015.4
20260905201350 88 28 3.0 8.0 0.00 0.39 0.39 73 1015.8
20260905200846 90 339 4.0 8.0 0.00 0.39 0.39 69 1015.8
20260905200342 92 5 0.0 1.0 0.00 0.39 0.39 71 1015.1
20260905195838 92 5 0.0 1.0 0.00 0.39 0.39 70 1015.0
20260905195339 92 5 0.0 1.0 0.00 0.39 0.39 70 1015.0
20260905194834 91 5 0.0 2.0 0.00 0.39 0.39 69 1015.1
20260905194333 91 5 0.0 2.0 0.00 0.39 0.39 72 1015.3
20260905193851 90 5 0.0 2.0 0.00 0.39 0.39 74 1015.4
20260905193346 89 188 0.0 1.0 0.00 0.39 0.39 74 1015.4
20260905192842 88 187 0.0 4.0 0.01 0.39 0.39 75 1015.4
20260905192342 87 187 1.0 4.0 0.01 0.39 0.39 79 1015.5
20260905191844 87 201 1.0 5.0 0.01 0.39 0.39 82 1015.4
20260905191338 87 201 1.0 5.0 0.01 0.39 0.39 85 1015.6
20260905190858 85 203 1.0 5.0 0.08 0.39 0.39 85 1015.8
20260905190352 84 201 2.0 4.0 0.18 0.39 0.39 87 1015.7
20260905185845 82 200 0.0 3.0 0.29 0.39 0.39 90 1015.8
20260905185344 81 200 0.0 3.0 0.37 0.39 0.39 93 1015.9
20260905184902 80 200 0.0 3.0 0.39 0.39 0.39 98 1015.9
20260905184339 79 200 1.0 3.0 0.39 0.39 0.39 99 1015.8
20260905183835 78 201 0.0 3.0 0.39 0.39 0.39 98 1015.9
20260905183331 76 200 0.0 2.0 0.39 0.39 0.39 96 1016.0
20260905182849 75 200 0.0 2.0 0.39 0.39 0.39 94 1016.0
20260905182348 75 201 2.0 3.0 0.38 0.38 0.38 90 1016.0
20260905181846 76 200 1.0 10.0 0.38 0.38 0.38 88 1016.3
20260905181345 76 316 6.0 10.0 0.38 0.38 0.38 81 1016.5
20260905180842 78 206 4.0 22.0 0.32 0.32 0.32 82 1016.4
20260905180337 82 153 14.0 23.0 0.22 0.22 0.23 74 1016.7
20260905175834 90 178 2.0 14.0 0.11 0.11 0.11 68 1017.6
20260905175338 94 23 5.0 14.0 0.03 0.03 0.03 64 1016.7
20260905174833 96 73 2.0 7.0 0.00 0.00 0.00 55 1016.2
20260905174352 96 146 4.0 10.0 0.00 0.00 0.00 55 1016.1
20260905173849 96 60 4.0 11.0 0.00 0.00 0.00 54 1016.2
20260905173403 97 144 4.0 11.0 0.00 0.00 0.00 54 1016.2
20260905172840 98 332 6.0 11.0 0.00 0.00 0.00 53 1016.2
20260905172339 98 128 4.0 10.0 0.00 0.00 0.00 53 1016.3
20260905171854 98 254 2.0 11.0 0.00 0.00 0.00 53 1016.3
20260905171332 98 65 3.0 7.0 0.00 0.00 0.00 54 1016.3
20260905170848 98 65 2.0 6.0 0.00 0.00 0.00 55 1016.3
20260905170403 97 161 3.0 8.0 0.00 0.00 0.00 55 1016.3
20260905165838 96 161 5.0 8.0 0.00 0.00 0.00 55 1016.4
20260905165337 96 340 2.0 12.0 0.00 0.00 0.00 55 1016.6
20260905164835 97 65 7.0 12.0 0.00 0.00 0.00 55 1016.7
20260905164334 97 27 5.0 8.0 0.00 0.00 0.00 54 1016.7
20260905163833 96 165 3.0 6.0 0.00 0.00 0.00 58 1016.7
20260905163349 96 139 1.0 3.0 0.00 0.00 0.00 59 1016.9
20260905162843 96 140 1.0 4.0 0.00 0.00 0.00 59 1016.9
20260905162342 95 143 1.0 6.0 0.00 0.00 0.00 59 1017.0
20260905161840 95 19 3.0 7.0 0.00 0.00 0.00 60 1017.0
20260905161342 95 48 5.0 7.0 0.00 0.00 0.00 59 1017.0
20260905160841 94 51 3.0 8.0 0.00 0.00 0.00 61 1017.0
20260905160337 94 236 2.0 10.0 0.00 0.00 0.00 61 1017.1
20260905155835 94 43 3.0 5.0 0.00 0.00 0.00 61 1017.1
20260905155333 94 69 3.0 5.0 0.00 0.00 0.00 62 1017.2
20260905154831 93 331 1.0 3.0 0.00 0.00 0.00 63 1017.1
20260905154410 93 116 1.0 6.0 0.00 0.00 0.00 63 1017.2
20260905153847 93 179 4.0 6.0 0.00 0.00 0.00 62 1017.2
20260905153343 93 140 1.0 3.0 0.00 0.00 0.00 63 1017.4
20260905152839 93 314 1.0 9.0 0.00 0.00 0.00 64 1017.3
20260905152338 94 49 5.0 9.0 0.00 0.00 0.00 62 1017.4
20260905151833 93 85 3.0 5.0 0.00 0.00 0.00 63 1017.5
20260905151333 93 118 2.0 5.0 0.00 0.00 0.00 65 1017.4
20260905150851 92 173 2.0 4.0 0.00 0.00 0.00 65 1017.5
20260905150347 92 140 2.0 4.0 0.00 0.00 0.00 65 1017.5
20260905145845 92 110 1.0 5.0 0.00 0.00 0.00 66 1017.5
20260905145405 92 143 3.0 5.0 0.00 0.00 0.00 67 1017.7
20260905144843 91 104 2.0 4.0 0.00 0.00 0.00 68 1017.5
20260905144341 91 156 1.0 3.0 0.00 0.00 0.00 69 1017.6
20260905143839 90 64 1.0 3.0 0.00 0.00 0.00 67 1017.6
20260905143334 90 64 1.0 3.0 0.00 0.00 0.00 69 1017.7
20260905142831 90 67 1.0 3.0 0.00 0.00 0.00 70 1017.6
20260905142411 89 67 1.0 3.0 0.00 0.00 0.00 71 1017.8
20260905141844 89 67 0.0 4.0 0.00 0.00 0.00 72 1017.8
20260905141341 88 65 0.0 4.0 0.00 0.00 0.00 72 1017.9
20260905140840 88 65 2.0 4.0 0.00 0.00 0.00 73 1017.9
20260905140336 87 65 2.0 3.0 0.00 0.00 0.00 74 1017.9
20260905135834 86 207 1.0 2.0 0.00 0.00 0.00 76 1017.9
20260905135332 85 207 1.0 2.0 0.00 0.00 0.00 77 1018.0
20260905134850 85 207 1.0 2.0 0.00 0.00 0.00 78 1017.9
20260905134409 84 207 1.0 2.0 0.00 0.00 0.00 80 1018.0
20260905133842 83 207 0.0 3.0 0.00 0.00 0.00 81 1018.0
20260905133359 82 205 1.0 3.0 0.00 0.00 0.00 81 1018.1
20260905132836 82 205 0.0 2.0 0.00 0.00 0.00 83 1018.1
20260905132335 81 202 0.0 2.0 0.00 0.00 0.00 83 1018.1
20260905131834 81 202 1.0 3.0 0.00 0.00 0.00 84 1018.1
20260905131337 81 202 1.0 3.0 0.00 0.00 0.00 83 1018.2
20260905130833 81 222 0.0 3.0 0.00 0.00 0.00 84 1018.0
20260905130409 81 222 0.0 0.0 0.00 0.00 0.00 83 1018.2
20260905125844 81 222 0.0 0.0 0.00 0.00 0.00 84 1018.2
20260905125342 80 222 0.0 0.0 0.00 0.00 0.00 86 1018.1
20260905124859 80 222 0.0 0.0 0.00 0.00 0.00 87 1018.1
20260905124337 79 222 0.0 0.0 0.00 0.00 0.00 88 1018.0
20260905123854 79 222 0.0 0.0 0.00 0.00 0.00 88 1018.0
20260905123345 78 222 0.0 0.0 0.00 0.00 0.00 89 1018.0
20260905122843 78 222 0.0 0.0 0.00 0.00 0.00 91 1018.0
20260905122403 77 222 0.0 0.0 0.00 0.00 0.00 92 1018.0
20260905121841 76 222 0.0 0.0 0.00 0.00 0.00 93 1018.0
20260905121359 76 222 0.0 0.0 0.00 0.00 0.00 93 1018.0
20260905120836 76 222 0.0 0.0 0.00 0.00 0.00 93 1017.7
20260905120349 75 222 0.0 0.0 0.00 0.00 0.00 93 1017.7
20260905115844 75 222 0.0 0.0 0.00 0.00 0.00 93 1017.6
20260905115343 75 222 0.0 0.0 0.00 0.00 0.00 93 1017.6
20260905114901 75 222 0.0 0.0 0.00 0.00 0.00 93 1017.6
20260905114340 75 222 0.0 0.0 0.00 0.00 0.00 93 1017.5
20260905113839 75 222 0.0 0.0 0.00 0.00 0.00 93 1017.5
20260905113335 75 222 0.0 0.0 0.00 0.00 0.00 93 1017.3
20260905112834 75 222 0.0 0.0 0.00 0.00 0.00 93 1017.4
20260905112334 75 222 0.0 0.0 0.00 0.00 0.00 92 1017.2
20260905111831 75 222 0.0 0.0 0.00 0.00 0.00 92 1017.2
20260905111349 75 222 0.0 0.0 0.00 0.00 0.00 92 1017.2
20260905110848 76 222 0.0 0.0 0.00 0.00 0.00 92 1017.1
20260905110344 76 222 0.0 0.0 0.00 0.00 0.00 92 1017.0
20260905105842 76 222 0.0 0.0 0.00 0.00 0.00 92 1017.0
20260905105338 76 222 0.0 0.0 0.00 0.00 0.00 91 1017.0
20260905104835 76 302 0.0 0.0 0.00 0.00 0.00 92 1016.9
20260905104355 76 302 0.0 0.0 0.00 0.00 0.00 91 1016.9
20260905103853 76 302 0.0 0.0 0.00 0.00 0.00 91 1017.0
20260905103348 76 302 0.0 0.0 0.00 0.00 0.00 91 1016.8
20260905102846 76 302 0.0 0.0 0.00 0.00 0.00 91 1016.8
20260905102346 76 302 0.0 0.0 0.00 0.00 0.00 91 1016.8
20260905101840 76 302 0.0 0.0 0.00 0.00 0.00 91 1016.9
20260905101339 76 302 0.0 0.0 0.00 0.00 0.00 91 1017.0
20260905100842 76 302 0.0 0.0 0.00 0.00 0.00 91 1016.9
20260905100337 76 302 0.0 0.0 0.00 0.00 0.00 91 1016.9
20260905095834 76 302 0.0 0.0 0.00 0.00 0.00 91 1016.9
20260905095333 76 302 0.0 0.0 0.00 0.00 0.00 91 1016.9
20260905094829 77 302 0.0 0.0 0.00 0.00 0.00 91 1016.9
20260905094329 77 302 0.0 0.0 0.00 0.00 0.00 91 1016.8
20260905093908 77 302 0.0 0.0 0.00 0.00 0.00 90 1016.8
20260905093342 77 302 0.0 0.0 0.00 0.00 0.00 90 1016.6
20260905092840 77 302 0.0 0.0 0.00 0.00 0.00 90 1016.7
20260905092339 77 302 0.0 0.0 0.00 0.00 0.00 90 1016.7
20260905091838 77 302 0.0 0.0 0.00 0.00 0.00 90 1016.7
20260905091334 77 302 0.0 0.0 0.00 0.00 0.00 90 1016.7
20260905090852 77 302 0.0 0.0 0.00 0.00 0.00 89 1016.7
20260905090407 77 302 0.0 0.0 0.00 0.00 0.00 89 1016.6
20260905085844 77 302 0.0 0.0 0.00 0.00 0.00 89 1016.7
20260905085341 77 302 0.0 0.0 0.00 0.00 0.00 89 1016.7
20260905084839 77 302 0.0 0.0 0.00 0.00 0.00 89 1016.6
20260905084343 77 302 0.0 0.0 0.00 0.00 0.00 89 1016.6
20260905083840 77 302 0.0 0.0 0.00 0.00 0.00 89 1016.5
20260905083336 77 302 0.0 0.0 0.00 0.00 0.00 89 1016.6
20260905082833 77 302 0.0 0.0 0.00 0.00 0.00 89 1016.7
20260905082353 77 302 0.0 0.0 0.00 0.00 0.00 89 1016.6
20260905081848 77 302 0.0 0.0 0.00 0.00 0.00 89 1016.5
20260905081348 77 302 0.0 0.0 0.00 0.00 0.00 89 1016.6
20260905080843 78 302 0.0 0.0 0.00 0.00 0.00 89 1016.6
20260905080339 78 302 0.0 0.0 0.00 0.00 0.00 89 1016.4
20260905075835 78 302 0.0 0.0 0.00 0.00 0.00 88 1016.5
20260905075334 78 302 0.0 0.0 0.00 0.00 0.00 88 1016.5
20260905074832 78 302 0.0 0.0 0.00 0.00 0.00 88 1016.5
20260905074331 78 302 0.0 0.0 0.00 0.00 0.00 87 1016.5
20260905073850 78 302 0.0 0.0 0.00 0.00 0.00 87 1016.5
20260905073343 78 302 0.0 0.0 0.00 0.00 0.00 87 1016.4
20260905072841 78 302 0.0 0.0 0.00 0.00 0.00 87 1016.4
20260905072359 78 302 0.0 0.0 0.00 0.00 0.00 86 1016.3
20260905071839 78 302 0.0 0.0 0.00 0.00 0.00 86 1016.3
20260905071359 78 302 0.0 0.0 0.00 0.00 0.00 86 1016.4
20260905070834 79 302 0.0 0.0 0.00 0.00 0.00 86 1016.4
20260905070349 79 302 0.0 0.0 0.00 0.00 0.00 86 1016.3
20260905065903 79 302 0.0 0.0 0.00 0.00 0.00 86 1016.4
20260905065341 79 302 0.0 0.0 0.00 0.00 0.00 86 1016.5
20260905064836 79 302 0.0 0.0 0.00 0.00 0.00 85 1016.7
20260905064336 79 302 0.0 0.0 0.00 0.00 0.00 85 1016.6
20260905063852 80 302 0.0 0.0 0.00 0.00 0.00 85 1016.6
20260905063407 80 302 0.0 0.0 0.00 0.00 0.00 85 1016.6
20260905062843 80 302 0.0 0.0 0.00 0.00 0.00 84 1016.7
20260905062343 80 302 0.0 0.0 0.00 0.00 0.00 84 1016.7
20260905061840 80 302 0.0 0.0 0.00 0.00 0.00 84 1016.7
20260905061338 80 302 0.0 0.0 0.00 0.00 0.00 83 1016.6
20260905060836 80 302 0.0 0.0 0.00 0.00 0.00 83 1016.6
20260905060351 80 302 0.0 0.0 0.00 0.00 0.00 83 1016.6
20260905055909 80 302 0.0 0.0 0.00 0.00 0.00 82 1016.8
20260905055345 80 302 0.0 0.0 0.00 0.00 0.00 83 1016.8
20260905054842 80 302 0.0 0.0 0.00 0.00 0.00 83 1016.8
20260905054342 81 302 0.0 0.0 0.00 0.00 0.00 82 1016.8
20260905053841 81 302 0.0 0.0 0.00 0.00 0.00 83 1016.9
20260905053340 81 302 0.0 0.0 0.00 0.00 0.00 83 1016.8
20260905052858 81 302 0.0 0.0 0.00 0.00 0.00 82 1016.8
20260905052336 81 302 0.0 0.0 0.00 0.00 0.00 83 1016.8
20260905051830 81 302 0.0 0.0 0.00 0.00 0.00 83 1016.9
20260905051329 81 302 0.0 0.0 0.00 0.00 0.00 83 1016.8
20260905050848 81 302 0.0 0.0 0.00 0.00 0.00 83 1016.8
20260905050343 81 302 0.0 0.0 0.00 0.00 0.00 84 1017.0
20260905045841 81 302 0.0 0.0 0.00 0.00 0.00 84 1016.9
20260905045359 81 302 0.0 0.0 0.00 0.00 0.00 84 1017.0
20260905044835 81 302 0.0 0.0 0.00 0.00 0.00 83 1017.0
20260905044334 81 302 0.0 0.0 0.00 0.00 0.00 83 1017.0
20260905043852 81 302 0.0 0.0 0.00 0.00 0.00 83 1017.0
20260905043347 81 302 0.0 0.0 0.00 0.00 0.00 83 1017.0
20260905042843 81 302 0.0 0.0 0.00 0.00 0.00 83 1017.0
20260905042343 81 302 0.0 0.0 0.00 0.00 0.00 82 1017.0
20260905041841 82 302 0.0 0.0 0.00 0.00 0.00 82 1017.2
20260905041338 82 302 0.0 0.0 0.00 0.00 0.00 82 1017.1
20260905040840 82 302 0.0 0.0 0.00 0.00 0.00 82 1017.2
20260905040336 82 302 0.0 0.0 0.00 0.00 0.00 82 1017.2
20260905035833 82 302 0.0 0.0 0.00 0.00 0.00 82 1017.3
20260905035331 82 302 0.0 0.0 0.00 0.00 0.00 82 1017.4
20260905034847 82 302 0.0 0.0 0.00 0.00 0.00 81 1017.4
20260905034348 82 302 0.0 0.0 0.00 0.00 0.00 81 1017.4
20260905033842 83 302 0.0 0.0 0.00 0.00 0.00 80 1017.5
20260905033338 83 302 0.0 0.0 0.00 0.00 0.00 79 1017.6
20260905032834 83 302 0.0 0.0 0.00 0.00 0.00 80 1017.6
20260905032333 83 302 0.0 0.0 0.00 0.00 0.00 79 1017.5
20260905031830 83 302 0.0 0.0 0.00 0.00 0.00 80 1017.5
20260905031350 83 302 0.0 0.0 0.00 0.00 0.00 80 1017.6
20260905030844 83 302 0.0 0.0 0.00 0.00 0.00 81 1017.6
20260905030341 83 302 0.0 0.0 0.00 0.00 0.00 81 1017.8
20260905025837 83 302 0.0 0.0 0.00 0.00 0.00 81 1017.9
20260905025337 83 302 0.0 0.0 0.00 0.00 0.00 81 1018.0
20260905024837 83 302 0.0 0.0 0.00 0.00 0.00 81 1017.9
20260905024337 83 302 0.0 0.0 0.00 0.00 0.00 81 1018.0
20260905023915 84 302 0.0 0.0 0.00 0.00 0.00 80 1018.0
20260905023348 84 302 0.0 0.0 0.00 0.00 0.00 80 1018.1
20260905022847 84 302 0.0 0.0 0.00 0.00 0.00 80 1018.0